Location: Isle of Man Observatory
(54.1776°N, 4.6264°W)
Time: 10:13:56
(UTC+01:00)

Envisat - Visible Passes

Search period start: 16 November 2018 00:00
Search period end: 26 November 2018 00:00
Orbit: 764 x 766 km, 98.2° (Epoch: 16 November)

Date Brightness Start Highest point End Pass type
(mag) Time Alt. Az. Time Alt. Az. Time Alt. Az.
16 Nov 5.8 07:57:02 10° NE 08:00:44 20° E 08:04:24 10° SE visible
16 Nov 3.1 19:17:48 10° SE 19:22:41 49° ENE 19:27:35 10° N visible
16 Nov 4.6 20:57:25 10° SSW 21:01:55 31° W 21:06:28 10° NNW visible
17 Nov 6.5 07:23:19 10° E 07:23:24 10° E 07:23:28 10° E visible
17 Nov 3.8 18:41:54 10° ESE 18:46:11 28° ENE 18:50:29 10° N visible
17 Nov 3.5 20:19:56 10° S 20:24:57 59° W 20:30:00 10° NNW visible
17 Nov 6.0 22:04:06 10° W 22:05:05 10° W 22:06:04 10° WNW visible
18 Nov 4.4 18:06:40 10° E 18:09:53 17° NE 18:13:06 10° NNE visible
18 Nov 2.8 19:43:05 10° SSE 19:48:09 75° ENE 19:53:15 10° NNW visible
18 Nov 5.3 21:24:00 10° SW 21:27:46 21° W 21:31:32 10° NW visible
19 Nov 5.9 07:46:12 10° NE 07:49:23 16° E 07:52:34 10° SE visible
19 Nov 3.3 19:06:48 10° SE 19:11:33 41° ENE 19:16:19 10° N visible
19 Nov 4.3 20:45:56 10° SSW 20:50:38 38° W 20:55:23 10° NNW visible
20 Nov 4.0 18:31:05 10° ESE 18:35:07 24° ENE 18:39:09 10° N visible
20 Nov 3.2 20:08:42 10° S 20:13:43 71° WSW 20:18:50 10° NNW visible
20 Nov 5.8 21:51:23 10° WSW 21:53:42 13° W 21:56:02 10° NW visible
21 Nov 5.5 08:11:04 10° NE 08:15:17 25° E 08:19:28 10° SSE visible
21 Nov 4.6 17:56:06 10° E 17:58:51 15° NE 18:01:37 10° NNE visible
21 Nov 2.9 19:31:58 10° SSE 19:36:59 63° ENE 19:42:02 10° N visible
21 Nov 5.0 21:12:18 10° SW 21:16:26 25° W 21:20:35 10° NW visible
22 Nov 6.0 07:35:32 10° NE 07:38:02 14° E 07:40:31 10° ESE visible
22 Nov 3.5 18:55:51 10° SE 19:00:25 35° ENE 19:05:01 10° N visible
22 Nov 3.9 20:34:51 12° S 20:39:23 45° W 20:44:17 10° NNW visible
23 Nov 4.2 18:20:19 10° ESE 18:24:02 21° NE 18:27:47 10° N visible
23 Nov 2.9 19:57:47 12° SSE 20:02:31 85° WSW 20:07:38 10° NNW visible
23 Nov 5.6 21:39:16 10° WSW 21:42:20 16° W 21:45:24 10° NW visible
24 Nov 5.7 08:00:06 10° NE 08:03:57 21° E 08:07:48 10° SE visible
24 Nov 4.7 17:45:40 10° ENE 17:47:50 13° NE 17:50:01 10° NNE visible
24 Nov 3.1 19:20:54 10° SE 19:25:50 53° ENE 19:30:47 10° N visible
24 Nov 4.7 21:00:55 11° SSW 21:05:08 29° W 21:09:34 10° NNW visible
25 Nov 6.2 07:25:17 10° ENE 07:26:39 11° E 07:28:01 10° E visible
25 Nov 3.7 18:44:57 10° ESE 18:49:20 30° ENE 18:53:43 10° N visible
25 Nov 3.6 20:23:49 14° S 20:28:08 55° W 20:33:09 10° NNW visible
